CZ-3B DEB, 40852

Orbit data source: Space-Track

CZ-3B DEB, 40852 is space debris in HEO originally from a launch on Mon, 19 Dec 2011 UTC launched from the Xichang Space Center, China (XSC). Debris objects in space refer to the collection of defunct objects orbiting the Earth. Examples of debris include non-operational satellites, rocket bodies, and fragments generated from explosions, collisions, or faulty payload assembly.

Loading next visibility...
Identifier
40852, 2011-077AH
Orbit
HEO
Country
Flag of CNCN / PRC
Related business
Manufacturer
CALT
Mission
Spacecraft
Bus & Motor
Unknown
Mass
Unknown
Launch date (UTC)
2011-12-19 (14 years ago)
Launch vehicle
Unknown
Launch site
Xichang Space Center, China (XSC)
Object type
Payload
Rocket body
Debris
Shape & HBR
Unknown shape, 0.2 m
Radar Cross Section
Medium (>0.1 m² and <1 m²)

Expand to show TLE details & history
Last TLE update: 2 days ago

TLE from 2 days ago
0 CZ-3B DEB
1 40852U 11077AH  25306.02583437  .00000162  00000-0  00000-0 0  9992
2 40852  26.7398  95.7096 7322001 210.0884  72.3096  1.90680800 82021
Epoch: 2025-11-02T00:37Z
TLE epoch observation values (Epoch: 2025-11-02T00:37:12.089Z)
Latitude
0.00001°
Longitude
44.76926°
Altitude
28,387.129 km
Speed
2.902 km/s
True Right ascension
06h 22m 28s
True Declination
0° 00' 00"
Sunlit
Object was in daylight at epoch
Visualization orbit readout
Latitude
Unknown
Longitude
Unknown
Altitude
Unknown
Speed
Unknown
Apparent Right ascension
Unknown
Apparent Declination
Unknown
Sunlit
N/A
Visualization observer readout
Local Sidereal Time
13:46:19
Azimuth
Unknown
Elevation
Unknown
Doppler factor
Unknown
Orbital elements
Apogee altitude
41,212.12 km
Perigee altitude
979.365 km
Semi-major axis
27,473.88 km
Eccentricity
0.7322
Inclination
26.7398°
RAAN
95.7096°
Arg. of periapsis
210.0884°
True anomaly
149.95817°
Mean anomaly
72.3096°
Eccentric anomaly
111.37572°
Mean motion
0.47661 °/min
Orbital period
755.33 mins
BSTAR
0
Loading maneuver chart data...
Computing Atmospheric mass density...
Loading historical data...
Loading historical data...
Loading historical data...
Loading historical data...
Loading historical data...
Loading historical data...
Loading historical data...

Documentation

Showing up to 5 results
|